Terminal Aerodrome Forecast
Issued by NWS

Home | Current Version | Previous Version | Text Only | Print | Product List | Glossary On
Versions: 1 2 3 4 5 6 7 8 9 10 11 12
000
FTUS43 KBIS 231700
TAFDIK
TAF
KDIK 231734Z 2318/2418 22013KT P6SM SCT150
     FM241500 28012KT P6SM SCT080=

USA.gov is the U.S. government's official web portal to all federal, state and local government web resources and services.